OpenBCM V2.0.3 (Linux)

Packet Radio Mailbox

IZ3LSV

[San Dona' di P. JN]

 Login: GUEST





  
I0OJJ  > KEPS     05.05.26 02:25l 322 Lines 15382 Bytes #40 (0) @ AMSAT
BID : ORB26125.1
Read: GUEST
Subj: 2Line Orbital Elements 26125.AMSAT
Path: IZ3LSV<IK6IHL<IK7NXU<HB9ON<DK0WUE<PD0LPM<IR0AAB<I0OJJ
Sent: 260505/0021z @:I0OJJ.ITA.EU [Rome] obcm1.13-38-g65b7
From: I0OJJ @ I0OJJ.ITA.EU (Gustavo)
To:   KEPS @ AMSAT
X-Info: This message was generated automatically


QST de W1STR

AMSAT Orbital Elements for Amateur Satellites in TLE Format
From Orbital Analysis Office
New England Sci-Tech STEM Education Center
Natick MA May 05, 2026
To all radio amateurs


These element sets describe the orbits of various satellites 
in use by the amateur radio community. For details see:
www.amsat.org/keplerian-elements-formats/

A daily update of element sets is available at:
www.amsat.org/tle/daily-bulletin.txt
or without bulletin text:
www.amsat.org/tle/dailytle.txt


AO-07
1 07530U 74089B   26124.66595154 -.00000053  00000-0 -42139-4 0  9992
2 07530 101.9923 137.4560 0012037 212.7093 266.3204 12.53697382355063
UO-11
1 14781U 84021B   26124.86012703  .00001371  00000-0  14549-3 0  9996
2 14781  97.8029  90.9309 0006970 338.8198  21.2730 14.90680703250673
AO-27
1 22825U 93061C   26124.78671485  .00000099  00000-0  54581-4 0  9994
2 22825  98.6896 192.2112 0007613 221.7333 138.3270 14.30930321700796
FO-29
1 24278U 96046B   26124.54078337 -.00000019  00000-0  17761-4 0  9997
2 24278  98.5288 339.3794 0349337 209.5593 148.5390 13.53272302467268
GO-32
1 25397U 98043D   26124.51359904  .00000053  00000-0  42900-4 0  9998
2 25397  99.0064 116.1738 0001432  28.9874 331.1384 14.24419708445119
ISS
1 25544U 98067A   26124.78032786  .00006047  00000-0  11742-3 0  9991
2 25544  51.6304 154.9608 0007349  23.5190 336.6133 15.49094049565025
NO-44
1 26931U 01043C   26124.78506441  .00000139  00000-0  82637-4 0  9992
2 26931  67.0523 356.5297 0006399 263.9375  96.0998 14.31939157284238
SO-50
1 27607U 02058C   26124.72745583  .00001276  00000-0  16755-3 0  9996
2 27607  64.5521 263.4371 0075631 270.3840  88.8600 14.82953014258012
CO-55
1 27844U 03031E   26124.76399369  .00000292  00000-0  14551-3 0  9991
2 27844  98.6751 133.8676 0008659 317.3674  42.6832 14.24308570185492
RS-22
1 27939U 03042A   26124.89453341  .00001484  00000-0  23705-3 0  9998
2 27939  98.3463 308.0332 0012290  50.3460  57.2115 14.73392547209171
CO-65
1 32785U 08021C   26124.88836267  .00005696  00000-0  36367-3 0  9993
2 32785  97.8265 105.4276 0009274 165.5823 194.5671 15.09046129978667
CO-66
1 32791U 08021J   26124.50348233  .00017973  00000-0  59676-3 0  9999
2 32791  97.7526 120.3709 0005135 101.3159 258.8659 15.31272851980607
RS-30
1 32953U 08025A   26124.80125876  .00000035  00000-0  18099-3 0  9997
2 32953  82.5080  22.4265 0020518  47.4464 312.8343 12.43177801814307
SRMSAT
1 37841U 11058D   26124.67550574  .00000422  00000-0  85094-4 0  9990
2 37841  19.9733 322.8391 0011784  85.3827 335.7134 14.11565762751668
ZACUBE-1
1 39417U 13066B   26124.80987168  .00005393  00000-0  42082-3 0  9991
2 39417  97.8130  86.9130 0043074  38.9211 321.5100 15.00846198674228
Delfi-N3xt
1 39428U 13066N   26124.73482052  .00009447  00000-0  83074-3 0  9997
2 39428  97.8358  45.1023 0075064 353.0046   7.0119 14.94576863668131
GOMX-1
1 39430U 13066Q   26124.80727801  .00002413  00000-0  36849-3 0  9996
2 39430  97.6507 328.0041 0127893 216.3374 142.9099 14.69295096663548
LO-74
1 39440U 13066AA  26124.78480661  .00003143  00000-0  29497-3 0  9996
2 39440  97.8881  73.6000 0058175 169.8417 190.3993 14.93447275670510
AO-73
1 39444U 13066AE  26124.49610664  .00008427  00000-0  53024-3 0  9999
2 39444  97.8257  95.0571 0036396 355.8434   4.2486 15.08910363673073
DTUSAT-2
1 40030U 14033W   26124.70428656  .00007597  00000-0  41675-3 0  9995
2 40030  98.0871 119.6935 0008795  35.6360 324.5456 15.14451257646109
LILACSAT-2
1 40908U 15049K   26124.84398507  .00017307  00000-0  30958-3 0  9995
2 40908  97.4703 160.0735 0008380  62.0250 298.1848 15.50029505589036
Horyu-4
1 41340U 16012D   26124.82968610  .00159251  00000-0  97139-3 0  9992
2 41340  30.9902  31.8050 0006247 315.7644  44.2512 15.75803615563938
Lapan A3
1 41603U 16040E   26124.84809726  .00004052  00000-0  12997-3 0  9996
2 41603  97.1490 122.4294 0010839 160.9953 199.1697 15.32829326548172
CAS-2T
1 41847U 16066G   26124.81172116  .00000655  00000-0  10235-3 0  9995
2 41847  98.3827 201.0379 0340900 261.1469  95.0987 14.44579600498537
TechnoSat
1 42829U 17042E   26124.82785274  .00002959  00000-0  21386-3 0  9995
2 42829  97.4248 284.1568 0016091 238.4978 121.4677 15.04697423480183
AO-91
1 43017U 17073E   26124.53872417  .00009023  00000-0  39690-3 0  9999
2 43017  97.4757 352.6637 0154237 119.0079 242.6708 15.11924179458799
S-Net D
1 43186U 18014G   26124.77972906  .00004687  00000-0  24547-3 0  9998
2 43186  97.5393  29.8489 0008846 157.2270 202.9357 15.16267033452182
S-Net B
1 43187U 18014H   26124.72434117  .00004970  00000-0  26025-3 0  9999
2 43187  97.5399  29.7792 0009608 153.9377 206.2341 15.16237805452176
S-Net A
1 43188U 18014J   26124.71282671  .00004719  00000-0  24708-3 0  9992
2 43188  97.5409  29.9685 0009452 154.5782 205.5917 15.16273197452171
S-Net C
1 43189U 18014K   26124.72797903  .00005019  00000-0  26277-3 0  9990
2 43189  97.5427  30.0515 0011036 149.1136 211.0748 15.16229056450729
Ten-Koh
1 43677U 18084G   26124.77876892  .00001979  00000-0  15297-3 0  9990
2 43677  98.0785 315.3198 0007399 261.8652  98.1732 15.02757396409642
PO-101
1 43678U 18084H   26124.81963253  .00003014  00000-0  24576-3 0  9996
2 43678  98.1072 319.1764 0012601 320.6184  39.4121 15.00239085409716
QO-100
1 43700U 18090A   26124.84143814  .00000000  00000-0  00000+0 0  9999
2 43700   0.0139 279.5314 0001684 155.2981 116.6183  1.00270453 27243
MinXSS-2
1 43758U 18099A   26124.77408532  .00032499  00000-0  70919-3 0  9991
2 43758  97.4551 199.8828 0008302  71.4779 288.7371 15.44123162407425
AO-95
1 43770U 18099N   26124.80566255  .00011739  00000-0  46152-3 0  9992
2 43770  97.4409 185.2376 0010195 135.6924 224.5132 15.25777802406603
SNUSat 2
1 43782U 18099AA  26124.66390538  .00008330  00000-0  37602-3 0  9991
2 43782  97.4089 178.7308 0012049  90.2764 269.9852 15.21172995406419
SnugLite
1 43784U 18099AC  26124.42579387  .00011526  00000-0  44763-3 0  9995
2 43784  97.3899 179.1610 0004492  91.4766 268.6988 15.26227432406641
ITASat 1
1 43786U 18099AE  26124.66915632  .00006831  00000-0  33359-3 0  9992
2 43786  97.4059 177.0601 0013962 139.6559 220.5714 15.18497725406308
EAGLET 1
1 43790U 18099AJ  26124.79321273  .00003950  00000-0  22949-3 0  9995
2 43790  97.4263 175.6141 0012592 131.0164 229.2158 15.12608491405775
ESEO
1 43792U 18099AL  26124.67393779  .00001306  00000-0  98264-4 0  9991
2 43792  97.3998 163.9215 0013359 118.5286 241.7287 15.04105881405262
JO-97
1 43803U 18099AX  26124.42539538  .00015853  00000-0  51033-3 0  9996
2 43803  97.4156 187.1497 0007039  75.8792 284.3232 15.32278933406924
Suomi 100
1 43804U 18099AY  26124.71971339  .00012239  00000-0  45747-3 0  9998
2 43804  97.4216 185.3016 0011547  78.4561 281.7974 15.27431416406780
ISAT
1 43879U 18111D   26124.78003659  .00075077  00000-0  97445-3 0  9994
2 43879  97.5906  56.9138 0008725  99.4230 260.8012 15.58542998404395
UWE-4
1 43880U 18111E   26124.29502078  .00029037  00000-0  64718-3 0  9993
2 43880  97.5863  50.7608 0010571 115.9415 244.2923 15.43496269404002
Sparrow
1 43881U 18111F   26124.82033367  .00104301  00000-0  10762-2 0  9990
2 43881  97.6134  61.9316 0007530 119.0733 241.1280 15.64425487404575
Prox-1
1 44339U 19036A   26124.86403997  .00014243  00000-0  14257-2 0  9998
2 44339  23.9962  43.4019 0006382 250.3420 109.6391 14.89599654367007
Taurus 1
1 44530U 19059C   26124.80228152  .00008360  00000-0  13498-2 0  9997
2 44530  98.6385 286.9638 0009693  91.6746 268.5570 14.71631679352265
TO-108
1 44881U 19093C   26124.82889502  .00001386  00000-0  16270-3 0  9991
2 44881  97.7541 198.1168 0012366 225.5813 134.4392 14.86450315344978
RS-44
1 44909U 19096E   26124.77081882  .00000018  00000-0  35367-4 0  9994
2 44909  82.5253   8.5581 0216467 245.8086 112.0254 12.79748031296799
SALSAT
1 46495U 20068K   26124.50762341  .00008113  00000-0  28903-3 0  9995
2 46495  97.8860 124.9370 0011725  95.9608 264.2967 15.29157477308686
CSS (TIANHE-1)
1 48274U 21035A   26124.72330958  .00027367  00000-0  29196-3 0  9993
2 48274  41.4668 226.5240 0005464 331.3769  28.6770 15.63304551286377
CUTE
1 49263U 21088D   26124.78642579  .00111202  00000-0  71505-3 0  9994
2 49263  97.4202 220.5032 0000437  99.1186 261.0128 15.75879215255688
TeikyoSat 4
1 49396U 21102B   26124.56663361  .00002483  00000-0  15909-3 0  9992
2 49396  97.3702 155.7432 0013724  84.7500 275.5295 15.09352308246147
Z-Sat
1 49399U 21102E   26124.82642852  .00004393  00000-0  21884-3 0  9997
2 49399  97.3358 161.4675 0017845  43.5574 316.7065 15.17936792246868
KOSEN 1
1 49402U 21102H   26124.09143609  .00007598  00000-0  29540-3 0  9994
2 49402  97.3221 167.1168 0013784  11.4635 348.6915 15.26232197247296
HO-113
1 50466U 21131B   26124.87520781  .00000402  00000-0  13793-3 0  9994
2 50466  98.4959 217.5049 0003313 213.7292 146.3686 14.41315358228877
SNUGLITE 2
1 52899U 22065F   26124.84490183  .00001004  00000-0  19963-3 0  9996
2 52899  98.2143 269.7688 0008127 151.8284 208.3359 14.64265227204651
UmKA 1 (RS40S)
1 57172U 23091G   26124.85835233  .00005564  00000-0  25868-3 0  9991
2 57172  97.5076 183.7317 0011221 269.9971  89.9979 15.20329607157423
CubeBel-2 (EU11S)
1 57175U 23091K   26124.84876588  .00012700  00000-0  46463-3 0  9995
2 57175  97.5074 187.7078 0008486 265.6149  94.4121 15.28161557157685
RS-38S
1 57189U 23091Z   26124.80553041  .00017871  00000-0  53326-3 0  9992
2 57189  97.5109 193.4648 0006891 213.7889 146.2916 15.34672905158038
SONATE-2
1 59112U 24043Q   26124.37384855  .00036392  00000-0  52938-3 0  9992
2 59112  97.5491 272.2067 0006349   7.8052 352.3300 15.55659492121073
